Weather History for Ras Al Khaimah, United Arab Emirates

Change the Weather History Date:

Tuesday, February 5, 2013

  Actual Average Record
Temperature  
Mean Temperature 62 °F -  
Max Temperature 76 °F 78 °F 86 °F (1999)
Min Temperature 47 °F 57 °F 47 °F (2013)
Degree Days  
Heating Degree Days 4    
Growing Degree Days 12 (Base 50)    
Moisture  
Dew Point 40 °F    
Average Humidity 46    
Maximum Humidity 66    
Minimum Humidity 12    
Precipitation  
Precipitation 0.00 in 0.05 in - ()
Sea Level Pressure  
Sea Level Pressure 30.15 in    
Wind  
Wind Speed 3 mph ()    
Max Wind Speed 13 mph    
Max Gust Speed -    
Visibility 6.0 miles    
Events      
Averages and records for this station are not official NWS values.
T = Trace of Precipitation, MM = Missing Value Source: Averaged Metar Reports

Daily Weather History Graph

Daily Weather History Graph

Search for Another Location

Airport:

Trip Planner

Search our weather history database for the weather conditions in past years. The results will help you decide how hot, cold, wet, or windy it might be!

Date:

Astronomy

Feb. 05, 2013 Rise Set
Actual Time 6:57 AM GST 6:03 PM GST
Civil Twilight 6:33 AM GST 6:26 PM GST
Nautical Twilight 6:06 AM GST 6:54 PM GST
Astronomical Twilight 5:39 AM GST 7:21 PM GST
Moon 2:04 AM GST (2/5) 1:07 PM GST (2/5)
Length of Visible Light 11h 52m
Length of Day
11h 05m
Waning Crescent, 30% of the Moon is Illuminated
Feb 5
Waning Crescent
Feb 10
New
Feb 18
First Quarter
Feb 26
Full
Mar 5
Last Quarter

Hourly Weather History & Observations

Time (GST) Temp. Dew Point Humidity Pressure Visibility Wind Dir Wind Speed Gust Speed Precip Events Conditions
12:00 AM 55.4 °F 39.2 °F 54% 30.15 in - Calm Calm - N/A   Clear
1:00 AM 53 °F 38 °F 46% 30.17 in 6 mi Calm Calm - -  
1:00 AM 53.6 °F 39.2 °F 58% 30.15 in - Calm Calm - N/A   Clear
2:00 AM 50.0 °F 37.4 °F 62% 30.15 in - SW 2.3 mph - N/A   Clear
3:00 AM 50.0 °F 37.4 °F 62% 30.15 in - South 3.5 mph - N/A   Clear
4:00 AM 49 °F 37 °F 53% 30.15 in 6 mi SSW 3.5 mph - -  
4:00 AM 48.2 °F 37.4 °F 66% 30.12 in - SSW 3.5 mph - N/A   Clear
5:00 AM 48.2 °F 37.4 °F 66% 30.12 in - SW 4.6 mph - N/A   Clear
6:00 AM 48.2 °F 37.4 °F 66% 30.15 in - SW 3.5 mph - N/A   Clear
7:00 AM 48 °F 38 °F 58% 30.18 in 6 mi SW 3.5 mph - -  
7:00 AM 48.2 °F 37.4 °F 66% 30.15 in - SW 3.5 mph - N/A   Clear
8:00 AM 50.0 °F 37.4 °F 62% 30.18 in - SW 4.6 mph - N/A   Clear
9:00 AM 59.0 °F 41.0 °F 51% 30.18 in - South 2.3 mph - N/A   Clear
10:00 AM 66 °F 39 °F 26% 30.21 in 6 mi Calm Calm - -  
10:00 AM 66.2 °F 39.2 °F 37% 30.18 in - Calm Calm - N/A   Clear
11:00 AM 71.6 °F 41.0 °F 33% 30.18 in - North 3.5 mph - N/A   Clear
12:00 PM 73.4 °F 35.6 °F 25% 30.15 in - West 4.6 mph - N/A   Clear
1:00 PM 76 °F 34 °F 12% 30.15 in 6 mi NW 4.6 mph - -  
1:00 PM 75.2 °F 33.8 °F 22% 30.12 in - NW 4.6 mph - N/A   Clear
2:00 PM 73.4 °F 41.0 °F 31% 30.12 in - NNW 11.5 mph - N/A   Clear
3:00 PM 73.4 °F 35.6 °F 25% 30.09 in - NW 12.7 mph - N/A   Clear
4:00 PM 73 °F 41 °F 21% 30.13 in 6 mi NNW 11.5 mph - -  
4:00 PM 73.4 °F 41.0 °F 31% 30.12 in - NNW 11.5 mph - N/A   Clear
5:00 PM 71.6 °F 42.8 °F 35% 30.12 in - North 9.2 mph - N/A   Clear
6:00 PM 69.8 °F 46.4 °F 43% 30.12 in - North 5.8 mph - N/A   Clear
7:00 PM 69 °F 48 °F 37% 30.15 in 6 mi North 5.8 mph - -  
7:00 PM 68.0 °F 48.2 °F 49% 30.15 in - North 5.8 mph - N/A   Clear
8:00 PM 66.2 °F 48.2 °F 52% 30.18 in - North 2.3 mph - N/A   Clear
9:00 PM 60.8 °F 46.4 °F 59% 30.18 in - SSE 2.3 mph - N/A   Clear
10:00 PM 58 °F 45 °F 51% 30.20 in 6 mi WSW 3.5 mph - -  
10:00 PM 59.0 °F 44.6 °F 59% 30.18 in - WSW 3.5 mph - N/A   Clear
11:00 PM 57.2 °F 42.8 °F 59% 30.21 in - Calm Calm - N/A   Clear